Year,Month,Day,Hour,Minute,Value (Times are PST for temperature in C)
2020,04,12,00,00,1.10
2020,04,12,00,01,1.10
2020,04,12,00,02,1.10
2020,04,12,00,03,1.10
2020,04,12,00,04,1.10
2020,04,12,00,05,1.10
2020,04,12,00,06,1.10
2020,04,12,00,07,1.10
2020,04,12,00,08,1.10
2020,04,12,00,09,1.10
2020,04,12,00,10,1.10
2020,04,12,00,11,1.10
2020,04,12,00,12,1.10
2020,04,12,00,13,1.10
2020,04,12,00,14,1.00
2020,04,12,00,15,1.00
2020,04,12,00,16,1.00
2020,04,12,00,17,1.00
2020,04,12,00,18,0.90
2020,04,12,00,19,0.90
2020,04,12,00,20,0.90
2020,04,12,00,21,0.90
2020,04,12,00,22,0.90
2020,04,12,00,23,0.90
2020,04,12,00,24,0.90
2020,04,12,00,25,0.90
2020,04,12,00,26,0.90
2020,04,12,00,27,0.90
2020,04,12,00,28,0.90
2020,04,12,00,29,0.80
2020,04,12,00,30,0.80
2020,04,12,00,31,0.80
2020,04,12,00,32,0.80
2020,04,12,00,33,0.80
2020,04,12,00,34,0.80
2020,04,12,00,35,0.80
2020,04,12,00,36,0.80
2020,04,12,00,37,0.80
2020,04,12,00,38,0.80
2020,04,12,00,39,0.80
2020,04,12,00,40,0.80
2020,04,12,00,41,0.80
2020,04,12,00,42,0.80
2020,04,12,00,43,0.80
2020,04,12,00,44,0.80
2020,04,12,00,45,0.80
2020,04,12,00,46,0.70
2020,04,12,00,47,0.70
2020,04,12,00,48,0.70
2020,04,12,00,49,0.70
2020,04,12,00,50,0.70
2020,04,12,00,51,0.60
2020,04,12,00,52,0.60
2020,04,12,00,53,0.60
2020,04,12,00,54,0.60
2020,04,12,00,55,0.50
2020,04,12,00,56,0.50
2020,04,12,00,57,0.50
2020,04,12,00,58,0.40
2020,04,12,00,59,0.40
2020,04,12,01,00,0.40
2020,04,12,01,01,0.40
2020,04,12,01,02,0.40
2020,04,12,01,03,0.40
2020,04,12,01,04,0.30
2020,04,12,01,05,0.30
2020,04,12,01,06,0.30
2020,04,12,01,07,0.30
2020,04,12,01,08,0.30
2020,04,12,01,09,0.30
2020,04,12,01,10,0.30
2020,04,12,01,11,0.30
2020,04,12,01,12,0.20
2020,04,12,01,13,0.20
2020,04,12,01,14,0.20
2020,04,12,01,15,0.20
2020,04,12,01,16,0.20
2020,04,12,01,17,0.20
2020,04,12,01,18,0.20
2020,04,12,01,19,0.20
2020,04,12,01,20,0.10
2020,04,12,01,21,0.10
2020,04,12,01,22,0.10
2020,04,12,01,23,0.10
2020,04,12,01,24,0.10
2020,04,12,01,25,0.10
2020,04,12,01,26,0.10
2020,04,12,01,27,0.10
2020,04,12,01,28,0.10
2020,04,12,01,29,0.00
2020,04,12,01,30,0.00
2020,04,12,01,31,0.00
2020,04,12,01,32,0.00
2020,04,12,01,33,0.00
2020,04,12,01,34,0.00
2020,04,12,01,35,0.00
2020,04,12,01,36,0.00
2020,04,12,01,37,0.00
2020,04,12,01,38,0.00
2020,04,12,01,39,0.00
2020,04,12,01,40,0.10
2020,04,12,01,41,0.10
2020,04,12,01,42,0.10
2020,04,12,01,43,0.10
2020,04,12,01,44,0.10
2020,04,12,01,45,0.10
2020,04,12,01,46,0.10
2020,04,12,01,47,0.10
2020,04,12,01,48,0.10
2020,04,12,01,49,0.10
2020,04,12,01,50,0.10
2020,04,12,01,51,0.10
2020,04,12,01,52,0.10
2020,04,12,01,53,0.10
2020,04,12,01,54,0.10
2020,04,12,01,55,0.10
2020,04,12,01,56,0.10
2020,04,12,01,57,0.10
2020,04,12,01,58,0.00
2020,04,12,01,59,0.10
2020,04,12,02,00,0.10
2020,04,12,02,01,0.00
2020,04,12,02,02,0.00
2020,04,12,02,03,0.00
2020,04,12,02,04,0.00
2020,04,12,02,05,0.00
2020,04,12,02,06,0.00
2020,04,12,02,07,0.00
2020,04,12,02,08,0.00
2020,04,12,02,09,0.00
2020,04,12,02,10,0.00
2020,04,12,02,11,0.10
2020,04,12,02,12,0.10
2020,04,12,02,13,0.10
2020,04,12,02,14,0.10
2020,04,12,02,15,0.10
2020,04,12,02,16,0.10
2020,04,12,02,17,0.10
2020,04,12,02,18,0.10
2020,04,12,02,19,0.20
2020,04,12,02,20,0.20
2020,04,12,02,21,0.20
2020,04,12,02,22,0.20
2020,04,12,02,23,0.20
2020,04,12,02,24,0.20
2020,04,12,02,25,0.20
2020,04,12,02,26,0.20
2020,04,12,02,27,0.20
2020,04,12,02,28,0.30
2020,04,12,02,29,0.30
2020,04,12,02,30,0.30
2020,04,12,02,31,0.30
2020,04,12,02,32,0.30
2020,04,12,02,33,0.30
2020,04,12,02,34,0.30
2020,04,12,02,35,0.30
2020,04,12,02,36,0.30
2020,04,12,02,37,0.30
2020,04,12,02,38,0.30
2020,04,12,02,39,0.30
2020,04,12,02,40,0.30
2020,04,12,02,41,0.30
2020,04,12,02,42,0.30
2020,04,12,02,43,0.30
2020,04,12,02,44,0.30
2020,04,12,02,45,0.30
2020,04,12,02,46,0.40
2020,04,12,02,47,0.40
2020,04,12,02,48,0.40
2020,04,12,02,49,0.40
2020,04,12,02,50,0.40
2020,04,12,02,51,0.40
2020,04,12,02,52,0.40
2020,04,12,02,53,0.40
2020,04,12,02,54,0.50
2020,04,12,02,55,0.60
2020,04,12,02,56,0.70
2020,04,12,02,57,0.70
2020,04,12,02,58,0.80
2020,04,12,02,59,0.80
2020,04,12,03,00,0.80
2020,04,12,03,01,0.90
2020,04,12,03,02,0.90
2020,04,12,03,03,1.00
2020,04,12,03,04,1.10
2020,04,12,03,05,1.10
2020,04,12,03,06,1.20
2020,04,12,03,07,1.20
2020,04,12,03,08,1.30
2020,04,12,03,09,1.30
2020,04,12,03,10,1.30
2020,04,12,03,11,1.30
2020,04,12,03,12,1.20
2020,04,12,03,13,1.20
2020,04,12,03,14,1.20
2020,04,12,03,15,1.30
2020,04,12,03,16,1.30
2020,04,12,03,17,1.30
2020,04,12,03,18,1.30
2020,04,12,03,19,1.30
2020,04,12,03,20,1.30
2020,04,12,03,21,1.40
2020,04,12,03,22,1.50
2020,04,12,03,23,1.60
2020,04,12,03,24,1.60
2020,04,12,03,25,1.60
2020,04,12,03,26,1.60
2020,04,12,03,27,1.60
2020,04,12,03,28,1.60
2020,04,12,03,29,1.50
2020,04,12,03,30,1.50
2020,04,12,03,31,1.50
2020,04,12,03,32,1.50
2020,04,12,03,33,1.50
2020,04,12,03,34,1.50
2020,04,12,03,35,1.50
2020,04,12,03,36,1.50
2020,04,12,03,37,1.40
2020,04,12,03,38,1.40
2020,04,12,03,39,1.40
2020,04,12,03,40,1.30
2020,04,12,03,41,1.30
2020,04,12,03,42,1.30
2020,04,12,03,43,1.30
2020,04,12,03,44,1.30
2020,04,12,03,45,1.30
2020,04,12,03,46,1.30
2020,04,12,03,47,1.30
2020,04,12,03,48,1.30
2020,04,12,03,49,1.40
2020,04,12,03,50,1.70
2020,04,12,03,51,1.90
2020,04,12,03,52,2.10
2020,04,12,03,53,2.20
2020,04,12,03,54,2.30
2020,04,12,03,55,2.60
2020,04,12,03,56,2.70
2020,04,12,03,57,2.80
2020,04,12,03,58,3.00
2020,04,12,03,59,3.20
2020,04,12,04,00,3.30
2020,04,12,04,01,3.40
2020,04,12,04,02,3.50
2020,04,12,04,03,3.60
2020,04,12,04,04,3.60
2020,04,12,04,05,3.70
2020,04,12,04,06,3.60
2020,04,12,04,07,3.60
2020,04,12,04,08,3.60
2020,04,12,04,09,3.60
2020,04,12,04,10,3.50
2020,04,12,04,11,3.50
2020,04,12,04,12,3.40
2020,04,12,04,13,3.40
2020,04,12,04,14,3.40
2020,04,12,04,15,3.40
2020,04,12,04,16,3.40
2020,04,12,04,17,3.40
2020,04,12,04,18,3.40
2020,04,12,04,19,3.50
2020,04,12,04,20,3.50
2020,04,12,04,21,3.60
2020,04,12,04,22,3.60
2020,04,12,04,23,3.70
2020,04,12,04,24,3.80
2020,04,12,04,25,3.90
2020,04,12,04,26,3.90
2020,04,12,04,27,3.90
2020,04,12,04,28,3.90
2020,04,12,04,29,3.90
2020,04,12,04,30,3.90
2020,04,12,04,31,3.90
2020,04,12,04,32,3.90
2020,04,12,04,33,3.90
2020,04,12,04,34,3.90
2020,04,12,04,35,3.90
2020,04,12,04,36,4.00
2020,04,12,04,37,4.00
2020,04,12,04,38,4.00
2020,04,12,04,39,4.10
2020,04,12,04,40,4.10
2020,04,12,04,41,4.20
2020,04,12,04,42,4.30
2020,04,12,04,43,4.30
2020,04,12,04,44,4.40
2020,04,12,04,45,4.40
2020,04,12,04,46,4.50
2020,04,12,04,47,4.50
2020,04,12,04,48,4.60
2020,04,12,04,49,4.80
2020,04,12,04,50,4.80
2020,04,12,04,51,4.90
2020,04,12,04,52,4.90
2020,04,12,04,53,4.90
2020,04,12,04,54,4.90
2020,04,12,04,55,5.00
2020,04,12,04,56,5.00
2020,04,12,04,57,5.10
2020,04,12,04,58,5.30
2020,04,12,04,59,5.30
2020,04,12,05,00,5.40
2020,04,12,05,01,5.40
2020,04,12,05,02,5.40
2020,04,12,05,03,5.50
2020,04,12,05,04,5.60
2020,04,12,05,05,5.60
2020,04,12,05,06,5.70
2020,04,12,05,07,5.80
2020,04,12,05,08,5.90
2020,04,12,05,09,6.00
2020,04,12,05,10,6.10
2020,04,12,05,11,6.10
2020,04,12,05,12,6.10
2020,04,12,05,13,6.10
2020,04,12,05,14,6.10
2020,04,12,05,15,6.10
2020,04,12,05,16,6.10
2020,04,12,05,17,6.10
2020,04,12,05,18,6.10
2020,04,12,05,19,6.00
2020,04,12,05,20,6.00
2020,04,12,05,21,6.00
2020,04,12,05,22,6.00
2020,04,12,05,23,6.00
2020,04,12,05,24,6.00
2020,04,12,05,25,6.00
2020,04,12,05,26,5.90
2020,04,12,05,27,5.90
2020,04,12,05,28,5.90
2020,04,12,05,29,5.90
2020,04,12,05,30,5.90
2020,04,12,05,31,5.80
2020,04,12,05,32,5.80
2020,04,12,05,33,5.80
2020,04,12,05,34,5.80
2020,04,12,05,35,5.80
2020,04,12,05,36,5.80
2020,04,12,05,37,5.80
2020,04,12,05,38,5.80
2020,04,12,05,39,5.80
2020,04,12,05,40,5.80
2020,04,12,05,41,5.80
2020,04,12,05,42,5.80
2020,04,12,05,43,5.90
2020,04,12,05,44,5.90
2020,04,12,05,45,5.90
2020,04,12,05,46,5.80
2020,04,12,05,47,5.80
2020,04,12,05,48,5.80
2020,04,12,05,49,5.80
2020,04,12,05,50,5.70
2020,04,12,05,51,5.70
2020,04,12,05,52,5.60
2020,04,12,05,53,5.50
2020,04,12,05,54,5.40
2020,04,12,05,55,5.30
2020,04,12,05,56,5.30
2020,04,12,05,57,5.30
2020,04,12,05,58,5.30
2020,04,12,05,59,5.40
2020,04,12,06,00,5.40
2020,04,12,06,01,5.40
2020,04,12,06,02,5.40
2020,04,12,06,03,5.40
2020,04,12,06,04,5.40
2020,04,12,06,05,5.40
2020,04,12,06,06,5.30
2020,04,12,06,07,5.30
2020,04,12,06,08,5.20
2020,04,12,06,09,5.20
2020,04,12,06,10,5.10
2020,04,12,06,11,5.10
2020,04,12,06,12,5.10
2020,04,12,06,13,5.00
2020,04,12,06,14,5.00
2020,04,12,06,15,4.90
2020,04,12,06,16,4.80
2020,04,12,06,17,4.80
2020,04,12,06,18,4.70
2020,04,12,06,19,4.60
2020,04,12,06,20,4.60
2020,04,12,06,21,4.50
2020,04,12,06,22,4.40
2020,04,12,06,23,4.40
2020,04,12,06,24,4.30
2020,04,12,06,25,4.30
2020,04,12,06,26,4.30
2020,04,12,06,27,4.30
2020,04,12,06,28,4.40
2020,04,12,06,29,4.40
2020,04,12,06,30,4.40
2020,04,12,06,31,4.40
2020,04,12,06,32,4.30
2020,04,12,06,33,4.30
2020,04,12,06,34,4.30
2020,04,12,06,35,4.30
2020,04,12,06,36,4.30
2020,04,12,06,37,4.30
2020,04,12,06,38,4.30
2020,04,12,06,39,4.20
2020,04,12,06,40,4.20
2020,04,12,06,41,4.20
2020,04,12,06,42,4.20
2020,04,12,06,43,4.10
2020,04,12,06,44,4.00
2020,04,12,06,45,4.00
2020,04,12,06,46,4.00
2020,04,12,06,47,3.90
2020,04,12,06,48,3.90
2020,04,12,06,49,3.90
2020,04,12,06,50,3.80
2020,04,12,06,51,3.80
2020,04,12,06,52,3.80
2020,04,12,06,53,3.80
2020,04,12,06,54,3.80
2020,04,12,06,55,3.80
2020,04,12,06,56,3.80
2020,04,12,06,57,3.70
2020,04,12,06,58,3.80
2020,04,12,06,59,3.80
2020,04,12,07,00,3.90
2020,04,12,07,01,3.90
2020,04,12,07,02,3.90
2020,04,12,07,03,3.90
2020,04,12,07,04,3.90
2020,04,12,07,05,3.90
2020,04,12,07,06,3.90
2020,04,12,07,07,4.00
2020,04,12,07,08,4.10
2020,04,12,07,09,4.20
2020,04,12,07,10,4.30
2020,04,12,07,11,4.40
2020,04,12,07,12,4.50
2020,04,12,07,13,4.60
2020,04,12,07,14,4.60
2020,04,12,07,15,4.60
2020,04,12,07,16,4.60
2020,04,12,07,17,4.70
2020,04,12,07,18,4.70
2020,04,12,07,19,4.70
2020,04,12,07,20,4.80
2020,04,12,07,21,4.90
2020,04,12,07,22,4.90
2020,04,12,07,23,4.90
2020,04,12,07,24,5.00
2020,04,12,07,25,4.90
2020,04,12,07,26,4.90
2020,04,12,07,27,4.90
2020,04,12,07,28,4.90
2020,04,12,07,29,4.90
2020,04,12,07,30,5.00
2020,04,12,07,31,5.10
2020,04,12,07,32,5.10
2020,04,12,07,33,5.20
2020,04,12,07,34,5.30
2020,04,12,07,35,5.30
2020,04,12,07,36,5.40
2020,04,12,07,37,5.50
2020,04,12,07,38,5.60
2020,04,12,07,39,5.70
2020,04,12,07,40,5.70
2020,04,12,07,41,5.70
2020,04,12,07,42,5.80
2020,04,12,07,43,5.80
2020,04,12,07,44,5.80
2020,04,12,07,45,5.80
2020,04,12,07,46,5.80
2020,04,12,07,47,5.90
2020,04,12,07,48,5.90
2020,04,12,07,49,6.00
2020,04,12,07,50,6.00
2020,04,12,07,51,6.10
2020,04,12,07,52,6.10
2020,04,12,07,53,6.10
2020,04,12,07,54,6.00
2020,04,12,07,55,6.10
2020,04,12,07,56,6.00
2020,04,12,07,57,6.00
2020,04,12,07,58,6.10
2020,04,12,07,59,6.20
2020,04,12,08,00,6.30
2020,04,12,08,01,6.30
2020,04,12,08,02,6.40
2020,04,12,08,03,6.40
2020,04,12,08,04,6.50
2020,04,12,08,05,6.60
2020,04,12,08,06,6.70
2020,04,12,08,07,6.80
2020,04,12,08,08,6.90
2020,04,12,08,09,7.00
2020,04,12,08,10,7.10
2020,04,12,08,11,7.10
2020,04,12,08,12,7.20
2020,04,12,08,13,7.20
2020,04,12,08,14,7.20
2020,04,12,08,15,7.30
2020,04,12,08,16,7.40
2020,04,12,08,17,7.50
2020,04,12,08,18,7.50
2020,04,12,08,19,7.60
2020,04,12,08,20,7.70
2020,04,12,08,21,7.70
2020,04,12,08,22,7.70
2020,04,12,08,23,7.80
2020,04,12,08,24,7.80
2020,04,12,08,25,7.90
2020,04,12,08,26,7.90
2020,04,12,08,27,8.00
2020,04,12,08,28,8.00
2020,04,12,08,29,8.10
2020,04,12,08,30,8.20
2020,04,12,08,31,8.20
2020,04,12,08,32,8.20
2020,04,12,08,33,8.20
2020,04,12,08,34,8.30
2020,04,12,08,35,8.30
2020,04,12,08,36,8.30
2020,04,12,08,37,8.30
2020,04,12,08,38,8.30
2020,04,12,08,39,8.30
2020,04,12,08,40,8.30
2020,04,12,08,41,8.30
2020,04,12,08,42,8.40
2020,04,12,08,43,8.40
2020,04,12,08,44,8.50
2020,04,12,08,45,8.50
2020,04,12,08,46,8.60
2020,04,12,08,47,8.60
2020,04,12,08,48,8.60
2020,04,12,08,49,8.70
2020,04,12,08,50,8.70
2020,04,12,08,51,8.70
2020,04,12,08,52,8.70
2020,04,12,08,53,8.70
2020,04,12,08,54,8.70
2020,04,12,08,55,8.70
2020,04,12,08,56,8.80
2020,04,12,08,57,8.80
2020,04,12,08,58,8.80
2020,04,12,08,59,8.80
2020,04,12,09,00,8.80
2020,04,12,09,01,8.80
2020,04,12,09,02,8.80
2020,04,12,09,03,8.80
2020,04,12,09,04,8.80
2020,04,12,09,05,8.80
2020,04,12,09,06,8.80
2020,04,12,09,07,8.80
2020,04,12,09,08,8.80
2020,04,12,09,09,8.80
2020,04,12,09,10,8.80
2020,04,12,09,11,8.90
2020,04,12,09,12,8.90
2020,04,12,09,13,8.90
2020,04,12,09,14,9.00
2020,04,12,09,15,9.00
2020,04,12,09,16,9.10
2020,04,12,09,17,9.10
2020,04,12,09,18,9.10
2020,04,12,09,19,9.10
2020,04,12,09,20,9.10
2020,04,12,09,21,9.10
2020,04,12,09,22,9.00
2020,04,12,09,23,9.10
2020,04,12,09,24,9.10
2020,04,12,09,25,9.20
2020,04,12,09,26,9.20
2020,04,12,09,27,9.20
2020,04,12,09,28,9.20
2020,04,12,09,29,9.20
2020,04,12,09,30,9.30
2020,04,12,09,31,9.30
2020,04,12,09,32,9.30
2020,04,12,09,33,9.30
2020,04,12,09,34,9.30
2020,04,12,09,35,9.30
2020,04,12,09,36,9.30
2020,04,12,09,37,9.30
2020,04,12,09,38,9.20
2020,04,12,09,39,9.20
2020,04,12,09,40,9.20
2020,04,12,09,41,9.20
2020,04,12,09,42,9.10
2020,04,12,09,43,9.20
2020,04,12,09,44,9.20
2020,04,12,09,45,9.30
2020,04,12,09,46,9.40
2020,04,12,09,47,9.40
2020,04,12,09,48,9.50
2020,04,12,09,49,9.50
2020,04,12,09,50,9.60
2020,04,12,09,51,9.60
2020,04,12,09,52,9.70
2020,04,12,09,53,9.70
2020,04,12,09,54,9.60
2020,04,12,09,55,9.50
2020,04,12,09,56,9.50
2020,04,12,09,57,9.50
2020,04,12,09,58,9.50
2020,04,12,09,59,9.50
2020,04,12,10,00,9.60
2020,04,12,10,01,9.60
2020,04,12,10,02,9.70
2020,04,12,10,03,9.80
2020,04,12,10,04,9.80
2020,04,12,10,05,9.80
2020,04,12,10,06,9.80
2020,04,12,10,07,9.80
2020,04,12,10,08,9.80
2020,04,12,10,09,9.80
2020,04,12,10,10,9.90
2020,04,12,10,11,10.00
2020,04,12,10,12,10.00
2020,04,12,10,13,10.10
2020,04,12,10,14,10.20
2020,04,12,10,15,10.20
2020,04,12,10,16,10.20
2020,04,12,10,17,10.30
2020,04,12,10,18,10.30
2020,04,12,10,19,10.40
2020,04,12,10,20,10.40
2020,04,12,10,21,10.40
2020,04,12,10,22,10.40
2020,04,12,10,23,10.40
2020,04,12,10,24,10.40
2020,04,12,10,25,10.30
2020,04,12,10,26,10.30
2020,04,12,10,27,10.30
2020,04,12,10,28,10.30
2020,04,12,10,29,10.30
2020,04,12,10,30,10.30
2020,04,12,10,31,10.30
2020,04,12,10,32,10.30
2020,04,12,10,33,10.30
2020,04,12,10,34,10.20
2020,04,12,10,35,10.30
2020,04,12,10,36,10.30
2020,04,12,10,37,10.20
2020,04,12,10,38,10.20
2020,04,12,10,39,10.20
2020,04,12,10,40,10.30
2020,04,12,10,41,10.30
2020,04,12,10,42,10.30
2020,04,12,10,43,10.30
2020,04,12,10,44,10.30
2020,04,12,10,45,10.20
2020,04,12,10,46,10.20
2020,04,12,10,47,10.20
2020,04,12,10,48,10.20
2020,04,12,10,49,10.20
2020,04,12,10,50,10.20
2020,04,12,10,51,10.30
2020,04,12,10,52,10.30
2020,04,12,10,53,10.30
2020,04,12,10,54,10.30
2020,04,12,10,55,10.30
2020,04,12,10,56,10.30
2020,04,12,10,57,10.30
2020,04,12,10,58,10.30
2020,04,12,10,59,10.30
2020,04,12,11,00,10.30
2020,04,12,11,01,10.30
2020,04,12,11,02,10.50
2020,04,12,11,03,10.60
2020,04,12,11,04,10.60
2020,04,12,11,05,10.70
2020,04,12,11,06,10.60
2020,04,12,11,07,10.60
2020,04,12,11,08,10.60
2020,04,12,11,09,10.70
2020,04,12,11,10,10.80
2020,04,12,11,11,10.90
2020,04,12,11,12,10.90
2020,04,12,11,13,11.00
2020,04,12,11,14,11.10
2020,04,12,11,15,11.20
2020,04,12,11,16,11.20
2020,04,12,11,17,11.30
2020,04,12,11,18,11.40
2020,04,12,11,19,11.40
2020,04,12,11,20,11.30
2020,04,12,11,21,11.30
2020,04,12,11,22,11.30
2020,04,12,11,23,11.30
2020,04,12,11,24,11.30
2020,04,12,11,25,11.20
2020,04,12,11,26,11.10
2020,04,12,11,27,11.10
2020,04,12,11,28,11.10
2020,04,12,11,29,11.10
2020,04,12,11,30,11.10
2020,04,12,11,31,11.10
2020,04,12,11,32,11.10
2020,04,12,11,33,11.10
2020,04,12,11,34,11.00
2020,04,12,11,35,11.00
2020,04,12,11,36,10.90
2020,04,12,11,37,10.80
2020,04,12,11,38,10.80
2020,04,12,11,39,10.80
2020,04,12,11,40,10.80
2020,04,12,11,41,10.90
2020,04,12,11,42,10.90
2020,04,12,11,43,10.90
2020,04,12,11,44,10.90
2020,04,12,11,45,10.80
2020,04,12,11,46,10.80
2020,04,12,11,47,10.90
2020,04,12,11,48,10.90
2020,04,12,11,49,10.90
2020,04,12,11,50,10.90
2020,04,12,11,51,11.00
2020,04,12,11,52,11.00
2020,04,12,11,53,10.90
2020,04,12,11,54,10.90
2020,04,12,11,55,10.90
2020,04,12,11,56,10.90
2020,04,12,11,57,10.80
2020,04,12,11,58,10.80
2020,04,12,11,59,10.80
2020,04,12,12,00,10.80
2020,04,12,12,01,10.80
2020,04,12,12,02,10.80
2020,04,12,12,03,10.80
2020,04,12,12,04,10.80
2020,04,12,12,05,10.80
2020,04,12,12,06,10.90
2020,04,12,12,07,10.90
2020,04,12,12,08,10.90
2020,04,12,12,09,11.00
2020,04,12,12,10,11.10
2020,04,12,12,11,11.20
2020,04,12,12,12,11.30
2020,04,12,12,13,11.30
2020,04,12,12,14,11.40
2020,04,12,12,15,11.40
2020,04,12,12,16,11.40
2020,04,12,12,17,11.40
2020,04,12,12,18,11.40
2020,04,12,12,19,11.40
2020,04,12,12,20,11.40
2020,04,12,12,21,11.40
2020,04,12,12,22,11.40
2020,04,12,12,23,11.40
2020,04,12,12,24,11.50
2020,04,12,12,25,11.50
2020,04,12,12,26,11.50
2020,04,12,12,27,11.40
2020,04,12,12,28,11.40
2020,04,12,12,29,11.30
2020,04,12,12,30,11.30
2020,04,12,12,31,11.30
2020,04,12,12,32,11.30
2020,04,12,12,33,11.20
2020,04,12,12,34,11.30
2020,04,12,12,35,11.30
2020,04,12,12,36,11.30
2020,04,12,12,37,11.30
2020,04,12,12,38,11.30
2020,04,12,12,39,11.30
2020,04,12,12,40,11.20
2020,04,12,12,41,11.20
2020,04,12,12,42,11.20
2020,04,12,12,43,11.30
2020,04,12,12,44,11.50
2020,04,12,12,45,11.60
2020,04,12,12,46,11.60
2020,04,12,12,47,11.60
2020,04,12,12,48,11.70
2020,04,12,12,49,11.80
2020,04,12,12,50,11.80
2020,04,12,12,51,11.80
2020,04,12,12,52,11.90
2020,04,12,12,53,11.90
2020,04,12,12,54,11.90
2020,04,12,12,55,11.80
2020,04,12,12,56,11.70
2020,04,12,12,57,11.60
2020,04,12,12,58,11.60
2020,04,12,12,59,11.60
2020,04,12,13,00,11.60
2020,04,12,13,01,11.70
2020,04,12,13,02,11.70
2020,04,12,13,03,11.80
2020,04,12,13,04,11.80
2020,04,12,13,05,11.80
2020,04,12,13,06,11.80
2020,04,12,13,07,11.90
2020,04,12,13,08,11.90
2020,04,12,13,09,12.00
2020,04,12,13,10,12.10
2020,04,12,13,11,12.20
2020,04,12,13,12,12.30
2020,04,12,13,13,12.30
2020,04,12,13,14,12.30
2020,04,12,13,15,12.20
2020,04,12,13,16,12.20
2020,04,12,13,17,12.20
2020,04,12,13,18,12.20
2020,04,12,13,19,12.20
2020,04,12,13,20,12.20
2020,04,12,13,21,12.20
2020,04,12,13,22,12.20
2020,04,12,13,23,12.20
2020,04,12,13,24,12.10
2020,04,12,13,25,12.10
2020,04,12,13,26,12.00
2020,04,12,13,27,11.90
2020,04,12,13,28,11.80
2020,04,12,13,29,11.80
2020,04,12,13,30,11.80
2020,04,12,13,31,11.80
2020,04,12,13,32,11.90
2020,04,12,13,33,12.00
2020,04,12,13,34,12.10
2020,04,12,13,35,12.20
2020,04,12,13,36,12.20
2020,04,12,13,37,12.20
2020,04,12,13,38,12.30
2020,04,12,13,39,12.30
2020,04,12,13,40,12.30
2020,04,12,13,41,12.30
2020,04,12,13,42,12.40
2020,04,12,13,43,12.40
2020,04,12,13,44,12.40
2020,04,12,13,45,12.40
2020,04,12,13,46,12.40
2020,04,12,13,47,12.30
2020,04,12,13,48,12.20
2020,04,12,13,49,12.10
2020,04,12,13,50,12.00
2020,04,12,13,51,12.00
2020,04,12,13,52,12.00
2020,04,12,13,53,12.00
2020,04,12,13,54,12.00
2020,04,12,13,55,12.10
2020,04,12,13,56,12.20
2020,04,12,13,57,12.30
2020,04,12,13,58,12.40
2020,04,12,13,59,12.40
2020,04,12,14,00,12.40
2020,04,12,14,01,12.30
2020,04,12,14,02,12.20
2020,04,12,14,03,12.20
2020,04,12,14,04,12.20
2020,04,12,14,05,12.20
2020,04,12,14,06,12.20
2020,04,12,14,07,12.30
2020,04,12,14,08,12.40
2020,04,12,14,09,12.40
2020,04,12,14,10,12.50
2020,04,12,14,11,12.50
2020,04,12,14,12,12.50
2020,04,12,14,13,12.60
2020,04,12,14,14,12.60
2020,04,12,14,15,12.60
2020,04,12,14,16,12.60
2020,04,12,14,17,12.60
2020,04,12,14,18,12.50
2020,04,12,14,19,12.50
2020,04,12,14,20,12.40
2020,04,12,14,21,12.30
2020,04,12,14,22,12.30
2020,04,12,14,23,12.30
2020,04,12,14,24,12.30
2020,04,12,14,25,12.30
2020,04,12,14,26,12.40
2020,04,12,14,27,12.40
2020,04,12,14,28,12.40
2020,04,12,14,29,12.40
2020,04,12,14,30,12.40
2020,04,12,14,31,12.40
2020,04,12,14,32,12.30
2020,04,12,14,33,12.30
2020,04,12,14,34,12.30
2020,04,12,14,35,12.30
2020,04,12,14,36,12.30
2020,04,12,14,37,12.40
2020,04,12,14,38,12.50
2020,04,12,14,39,12.60
2020,04,12,14,40,12.70
2020,04,12,14,41,12.70
2020,04,12,14,42,12.70
2020,04,12,14,43,12.70
2020,04,12,14,44,12.70
2020,04,12,14,45,12.70
2020,04,12,14,46,12.70
2020,04,12,14,47,12.80
2020,04,12,14,48,12.90
2020,04,12,14,49,12.90
2020,04,12,14,50,13.00
2020,04,12,14,51,13.10
2020,04,12,14,52,13.10
2020,04,12,14,53,13.10
2020,04,12,14,54,13.10
2020,04,12,14,55,13.10
2020,04,12,14,56,13.00
2020,04,12,14,57,13.00
2020,04,12,14,58,13.00
2020,04,12,14,59,13.00
2020,04,12,15,00,13.00
2020,04,12,15,01,13.00
2020,04,12,15,02,12.90
2020,04,12,15,03,12.90
2020,04,12,15,04,12.90
2020,04,12,15,05,12.90
2020,04,12,15,06,12.90
2020,04,12,15,07,13.00
2020,04,12,15,08,13.00
2020,04,12,15,09,13.00
2020,04,12,15,10,12.90
2020,04,12,15,11,12.80
2020,04,12,15,12,12.80
2020,04,12,15,13,12.70
2020,04,12,15,14,12.60
2020,04,12,15,15,12.50
2020,04,12,15,16,12.40
2020,04,12,15,17,12.40
2020,04,12,15,18,12.30
2020,04,12,15,19,12.30
2020,04,12,15,20,12.30
2020,04,12,15,21,12.30
2020,04,12,15,22,12.30
2020,04,12,15,23,12.30
2020,04,12,15,24,12.30
2020,04,12,15,25,12.20
2020,04,12,15,26,12.20
2020,04,12,15,27,12.20
2020,04,12,15,28,12.20
2020,04,12,15,29,12.20
2020,04,12,15,30,12.30
2020,04,12,15,31,12.30
2020,04,12,15,32,12.30
2020,04,12,15,33,12.30
2020,04,12,15,34,12.40
2020,04,12,15,35,12.50
2020,04,12,15,36,12.50
2020,04,12,15,37,12.50
2020,04,12,15,38,12.50
2020,04,12,15,39,12.50
2020,04,12,15,40,12.50
2020,04,12,15,41,12.50
2020,04,12,15,42,12.50
2020,04,12,15,43,12.60
2020,04,12,15,44,12.60
2020,04,12,15,45,12.70
2020,04,12,15,46,12.70
2020,04,12,15,47,12.70
2020,04,12,15,48,12.70
2020,04,12,15,49,12.70
2020,04,12,15,50,12.70
2020,04,12,15,51,12.60
2020,04,12,15,52,12.60
2020,04,12,15,53,12.50
2020,04,12,15,54,12.50
2020,04,12,15,55,12.50
2020,04,12,15,56,12.40
2020,04,12,15,57,12.40
2020,04,12,15,58,12.40
2020,04,12,15,59,12.40
2020,04,12,16,00,12.30
2020,04,12,16,01,12.30
2020,04,12,16,02,12.30
2020,04,12,16,03,12.30
2020,04,12,16,04,12.30
2020,04,12,16,05,12.30
2020,04,12,16,06,12.30
2020,04,12,16,07,12.30
2020,04,12,16,08,12.30
2020,04,12,16,09,12.30
2020,04,12,16,10,12.30
2020,04,12,16,11,12.30
2020,04,12,16,12,12.30
2020,04,12,16,13,12.30
2020,04,12,16,14,12.30
2020,04,12,16,15,12.30
2020,04,12,16,16,12.30
2020,04,12,16,17,12.30
2020,04,12,16,18,12.30
2020,04,12,16,19,12.30
2020,04,12,16,20,12.40
2020,04,12,16,21,12.30
2020,04,12,16,22,12.30
2020,04,12,16,23,12.30
2020,04,12,16,24,12.40
2020,04,12,16,25,12.40
2020,04,12,16,26,12.40
2020,04,12,16,27,12.40
2020,04,12,16,28,12.40
2020,04,12,16,29,12.40
2020,04,12,16,30,12.40
2020,04,12,16,31,12.40
2020,04,12,16,32,12.40
2020,04,12,16,33,12.40
2020,04,12,16,34,12.40
2020,04,12,16,35,12.40
2020,04,12,16,36,12.40
2020,04,12,16,37,12.40
2020,04,12,16,38,12.40
2020,04,12,16,39,12.40
2020,04,12,16,40,12.40
2020,04,12,16,41,12.40
2020,04,12,16,42,12.40
2020,04,12,16,43,12.40
2020,04,12,16,44,12.40
2020,04,12,16,45,12.40
2020,04,12,16,46,12.40
2020,04,12,16,47,12.40
2020,04,12,16,48,12.40
2020,04,12,16,49,12.40
2020,04,12,16,50,12.40
2020,04,12,16,51,12.40
2020,04,12,16,52,12.40
2020,04,12,16,53,12.40
2020,04,12,16,54,12.40
2020,04,12,16,55,12.40
2020,04,12,16,56,12.50
2020,04,12,16,57,12.50
2020,04,12,16,58,12.50
2020,04,12,16,59,12.50
2020,04,12,17,00,12.50
2020,04,12,17,01,12.50
2020,04,12,17,02,12.50
2020,04,12,17,03,12.50
2020,04,12,17,04,12.60
2020,04,12,17,05,12.60
2020,04,12,17,06,12.60
2020,04,12,17,07,12.60
2020,04,12,17,08,12.60
2020,04,12,17,09,12.50
2020,04,12,17,10,12.50
2020,04,12,17,11,12.50
2020,04,12,17,12,12.50
2020,04,12,17,13,12.50
2020,04,12,17,14,12.40
2020,04,12,17,15,12.40
2020,04,12,17,16,12.50
2020,04,12,17,17,12.50
2020,04,12,17,18,12.50
2020,04,12,17,19,12.50
2020,04,12,17,20,12.50
2020,04,12,17,21,12.50
2020,04,12,17,22,12.50
2020,04,12,17,23,12.50
2020,04,12,17,24,12.50
2020,04,12,17,25,12.50
2020,04,12,17,26,12.40
2020,04,12,17,27,12.40
2020,04,12,17,28,12.40
2020,04,12,17,29,12.40
2020,04,12,17,30,12.40
2020,04,12,17,31,12.40
2020,04,12,17,32,12.40
2020,04,12,17,33,12.40
2020,04,12,17,34,12.40
2020,04,12,17,35,12.40
2020,04,12,17,36,12.50
2020,04,12,17,37,12.50
2020,04,12,17,38,12.50
2020,04,12,17,39,12.50
2020,04,12,17,40,12.50
2020,04,12,17,41,12.50
2020,04,12,17,42,12.40
2020,04,12,17,43,12.40
2020,04,12,17,44,12.40
2020,04,12,17,45,12.50
2020,04,12,17,46,12.40